Location: Newark
(40.7066°N, 111.8219°W)
Time: 23:36:56
(UTC+00:00)

deb Explorer IX - Pass Details

Date: 23 November 2019
Orbit: 545 x 1105 km, 38.8° (Epoch: 08 December)

Event Time Altitude Azimuth Distance (km) Brightness Sun altitude
Exits shadow 11:11:00 18° 134° (SE) 1,773 ? -36.1°
Drops below altitude 10° 11:12:13 10° 129° (SE) 2,192 ? -35.9°
Sets 11:14:30 0° 123° (ESE) 3,027 ? -35.4°
